This is the latest recevied weather packets stored in our database for station/object SR8WXL-13. If no packets are shown the sender has not sent any weather packets the latest 10 day(s).
| Time | Temp. | Humidity | Pressure | Rain* | Wind** | Luminosity | Snow |
|---|---|---|---|---|---|---|---|
| 1777428865 | -3.89° C | 86% | 1037 hPa | - | - | - | - |
| 1777428129 | -2.78° C | 84% | 1037.1 hPa | - | - | - | - |
| 1777427355 | -3.89° C | 86% | 1036.7 hPa | - | - | - | - |
| 1777426601 | -3.89° C | 87% | 1036.8 hPa | - | - | - | - |
| 1777425879 | -3.89° C | 88% | 1036.8 hPa | - | - | - | - |
| 1777425044 | -3.89° C | 89% | 1036.6 hPa | - | - | - | - |
| 1777424169 | -3.89° C | 89% | 1036.5 hPa | - | - | - | - |
| 1777423305 | -3.89° C | 89% | 1036.2 hPa | - | - | - | - |
| 1777422532 | -3.89° C | 88% | 1036.5 hPa | - | - | - | - |
| 1777421789 | -2.78° C | 89% | 1036.7 hPa | - | - | - | - |
| 1777420890 | -3.89° C | 88% | 1036.7 hPa | - | - | - | - |
| 1777420075 | -2.78° C | 88% | 1036.9 hPa | - | - | - | - |
| 1777419314 | -2.78° C | 87% | 1037 hPa | - | - | - | - |
| 1777418565 | -2.78° C | 87% | 1036.8 hPa | - | - | - | - |
| 1777417759 | -2.78° C | 86% | 1037 hPa | - | - | - | - |
| 1777416889 | -2.78° C | 86% | 1036.8 hPa | - | - | - | - |
| 1777416009 | -2.78° C | 85% | 1037 hPa | - | - | - | - |
| 1777415264 | -2.78° C | 85% | 1036.9 hPa | - | - | - | - |
| 1777414366 | -2.22° C | 84% | 1036.9 hPa | - | - | - | - |
| 1777413504 | -2.22° C | 82% | 1037 hPa | - | - | - | - |
| 1777412625 | -2.22° C | 81% | 1036.9 hPa | - | - | - | - |
| 1777411834 | -1.11° C | 81% | 1036.9 hPa | - | - | - | - |
| 1777410944 | -1.11° C | 78% | 1037 hPa | - | - | - | - |
| 1777410070 | -1.11° C | 77% | 1037 hPa | - | - | - | - |
| 1777409345 | 0° C | 76% | 1036.9 hPa | - | - | - | - |
* Rain since midnight (hover to see other rain measurements)
** Current wind speed in m/s (hover to see current wind gust speed)